Location: Leipzig
(51.3203°N, 12.3761°E)
Time: 22:54:02
(UTC+01:00)

ISS - Pass Details

Date: 02 December 2021
Orbit: 413 x 422 km, 51.6° (Epoch: 27 January)

Event Time Altitude Azimuth Distance (km) Brightness Sun altitude
Rises 19:21:03 0° 284° (WNW) 2,386 1.2 -29.6°
Reaches altitude 10° 19:23:22 10° 271° (W) 1,515 0.0 -29.9°
Enters shadow 19:24:14 15° 261° (W) 1,229 -0.6 -30.1°
